sat.trackr.live / text

‹ back to catalog

STARLINK-30936

NORAD 58534 · 2023-192D

PAYLOAD ACTIVE UNKNOWN

§ Identity

Operator
Country
US
Launch date
2023-12-08
Launch site
AFWTR
Launch vehicle
Mass (kg)
RCS (m²)

Purposes: comms

External: N2YO · Heavens-Above · Gunter

§ Orbital elements

Epoch: 2026-09-20T07:28:04.897920Z

Period
94.01 min
Inclination
53.1595°
Eccentricity
0.0001668
Mean motion
15.31703159 rev/d
Perigee alt
469.6 km
Apogee alt
471.9 km
Semi-major
6,848.9 km
B*
3.5983e-5
RAAN
227.3557°
Arg perigee
61.9718°
Mean anomaly
298.1452°
Rev number
15,594

§ Raw data

STARLINK-309361 58534U 23192D   26263.31116780  .00000751  00000+0  35983-4 0  99922 58534  53.1595 227.3557 0001668  61.9718 298.1452 15.31703159155949

JSON: /api/v1/satellites/58534 · /tle

For live sub-satellite position, see the globe view (requires WebGL).

§ Visibility from observer

Set your observer location to see the next 7 days of passes ≥ 10°. The values pass through the URL so the page stays shareable.

No JS? Fill the form by hand. The geolocation button needs JavaScript.